| time (UTC) | temp F | wind direction | speed knots | gust knots | rain 1hr in | rain 24hr in | rain mn in | humidity % | barometer mb |
| 20260510000049 | 64 | 163 | 6.1 | 13.9 | 0.00 | 0.12 | 0.07 | 44 | 1006.1 |
| 20260509234548 | 65 | 214 | 7.0 | 13.9 | 0.00 | 0.12 | 0.07 | 44 | 1005.9 |
| 20260509233051 | 65 | 198 | 1.7 | 11.3 | 0.00 | 0.12 | 0.07 | 44 | 1005.8 |
| 20260509231557 | 65 | 262 | 9.6 | 15.6 | 0.00 | 0.12 | 0.07 | 43 | 1005.8 |
| 20260509230046 | 66 | 154 | 10.4 | 18.2 | 0.00 | 0.12 | 0.07 | 42 | 1005.8 |
| 20260509224545 | 66 | 198 | 7.8 | 15.6 | 0.00 | 0.12 | 0.07 | 42 | 1005.7 |
| 20260509223049 | 67 | 242 | 4.3 | 10.4 | 0.00 | 0.12 | 0.07 | 43 | 1005.5 |
| 20260509221545 | 66 | 229 | 9.6 | 19.1 | 0.00 | 0.12 | 0.07 | 41 | 1005.5 |
| 20260509220044 | 66 | 177 | 7.0 | 14.8 | 0.00 | 0.12 | 0.07 | 43 | 1005.9 |
| 20260509214540 | 66 | 229 | 8.7 | 15.6 | 0.00 | 0.12 | 0.07 | 42 | 1006.2 |
| 20260509213038 | 66 | 230 | 7.0 | 15.6 | 0.00 | 0.12 | 0.07 | 43 | 1006.1 |
| 20260509211535 | 66 | 250 | 7.8 | 18.2 | 0.00 | 0.12 | 0.07 | 43 | 1006.3 |
| 20260509210047 | 66 | 238 | 7.0 | 15.6 | 0.00 | 0.12 | 0.07 | 44 | 1006.5 |
| 20260509204531 | 65 | 199 | 7.0 | 13.9 | 0.00 | 0.12 | 0.07 | 46 | 1006.3 |
| 20260509203030 | 64 | 233 | 11.3 | 18.2 | 0.00 | 0.12 | 0.07 | 46 | 1006.6 |
| 20260509201528 | 64 | 208 | 5.2 | 12.2 | 0.00 | 0.12 | 0.07 | 49 | 1006.8 |
| 20260509200025 | 64 | 224 | 3.5 | 13.9 | 0.00 | 0.12 | 0.07 | 51 | 1006.9 |
| 20260509194525 | 63 | 232 | 7.0 | 14.8 | 0.00 | 0.13 | 0.07 | 50 | 1006.9 |
| 20260509193022 | 63 | 277 | 7.0 | 16.5 | 0.00 | 0.13 | 0.07 | 50 | 1007.1 |
| 20260509191519 | 62 | 261 | 7.8 | 18.2 | 0.00 | 0.13 | 0.07 | 51 | 1007.3 |
| 20260509190017 | 62 | 196 | 7.0 | 18.2 | 0.00 | 0.13 | 0.07 | 53 | 1007.4 |
| 20260509184517 | 61 | 192 | 7.8 | 13.0 | 0.00 | 0.13 | 0.07 | 55 | 1007.7 |
| 20260509183014 | 61 | 215 | 7.8 | 10.4 | 0.00 | 0.13 | 0.07 | 54 | 1007.8 |
| 20260509181511 | 60 | 226 | 6.1 | 13.0 | 0.00 | 0.13 | 0.07 | 56 | 1008.1 |
| 20260509180009 | 59 | 262 | 7.0 | 16.5 | 0.00 | 0.13 | 0.07 | 57 | 1008.2 |
| 20260509174509 | 58 | 239 | 7.8 | 15.6 | 0.00 | 0.13 | 0.07 | 58 | 1008.3 |
| 20260509173015 | 58 | 228 | 9.6 | 16.5 | 0.00 | 0.13 | 0.07 | 56 | 1008.0 |
| 20260509171512 | 58 | 221 | 9.6 | 17.4 | 0.00 | 0.13 | 0.07 | 57 | 1008.1 |
| 20260509170012 | 58 | 263 | 10.4 | 13.9 | 0.00 | 0.13 | 0.07 | 57 | 1007.9 |
| 20260509164607 | 58 | 224 | 7.0 | 14.8 | 0.00 | 0.13 | 0.07 | 58 | 1007.9 |
| 20260509163001 | 57 | 225 | 8.7 | 12.2 | 0.00 | 0.13 | 0.07 | 60 | 1007.9 |
| 20260509161559 | 57 | 251 | 6.1 | 13.9 | 0.00 | 0.13 | 0.07 | 60 | 1007.7 |
| 20260509160056 | 57 | 261 | 4.3 | 9.6 | 0.00 | 0.13 | 0.07 | 63 | 1008.0 |
| 20260509154552 | 56 | 211 | 4.3 | 10.4 | 0.00 | 0.13 | 0.07 | 67 | 1007.7 |
| 20260509153149 | 54 | 206 | 4.3 | 7.8 | 0.00 | 0.13 | 0.07 | 72 | 1007.6 |
| 20260509151557 | 53 | 179 | 1.7 | 8.7 | 0.00 | 0.13 | 0.07 | 81 | 1007.7 |
| 20260509150046 | 52 | 242 | 3.5 | 7.8 | 0.00 | 0.13 | 0.07 | 81 | 1007.7 |
| 20260509144540 | 52 | 212 | 1.7 | 7.8 | 0.00 | 0.13 | 0.07 | 81 | 1007.7 |
| 20260509143047 | 52 | 186 | 4.3 | 8.7 | 0.00 | 0.13 | 0.07 | 81 | 1008.0 |
| 20260509141537 | 52 | 220 | 3.5 | 7.0 | 0.00 | 0.13 | 0.07 | 81 | 1007.9 |
| 20260509140034 | 51 | 209 | 2.6 | 6.1 | 0.01 | 0.13 | 0.07 | 81 | 1007.9 |
| 20260509134536 | 51 | 206 | 1.7 | 8.7 | 0.01 | 0.13 | 0.07 | 81 | 1008.1 |
| 20260509133031 | 51 | 207 | 3.5 | 7.8 | 0.01 | 0.13 | 0.07 | 81 | 1008.0 |
| 20260509131539 | 51 | 215 | 2.6 | 7.0 | 0.02 | 0.13 | 0.07 | 81 | 1008.2 |
| 20260509130052 | 51 | 252 | 3.5 | 7.0 | 0.02 | 0.12 | 0.06 | 80 | 1008.3 |
| 20260509124532 | 51 | 259 | 4.3 | 8.7 | 0.02 | 0.12 | 0.06 | 79 | 1008.3 |
| 20260509123039 | 51 | 162 | 2.6 | 8.7 | 0.03 | 0.12 | 0.06 | 79 | 1008.4 |
| 20260509121525 | 51 | 226 | 2.6 | 8.7 | 0.02 | 0.11 | 0.05 | 79 | 1008.4 |
| 20260509120030 | 51 | 187 | 2.6 | 6.1 | 0.02 | 0.10 | 0.04 | 79 | 1008.3 |
| 20260509114522 | 51 | 203 | 1.7 | 4.3 | 0.03 | 0.10 | 0.04 | 79 | 1008.4 |
| 20260509113022 | 51 | 211 | 2.6 | 9.6 | 0.02 | 0.09 | 0.03 | 79 | 1008.3 |
| 20260509111519 | 50 | 269 | 3.5 | 7.8 | 0.02 | 0.09 | 0.03 | 78 | 1008.3 |
| 20260509110021 | 50 | 230 | 4.3 | 10.4 | 0.00 | 0.07 | 0.01 | 79 | 1008.2 |
| 20260509104516 | 50 | 230 | 2.6 | 7.0 | 0.00 | 0.07 | 0.01 | 80 | 1007.9 |
| 20260509103015 | 50 | 190 | 0.9 | 4.3 | 0.00 | 0.07 | 0.01 | 80 | 1007.9 |
| 20260509101522 | 50 | 205 | 1.7 | 7.0 | 0.00 | 0.07 | 0.01 | 80 | 1007.9 |
| 20260509100011 | 49 | 183 | 0.9 | 4.3 | 0.00 | 0.07 | 0.01 | 81 | 1008.1 |
| 20260509094513 | 49 | 151 | 0.9 | 5.2 | 0.01 | 0.07 | 0.01 | 81 | 1008.0 |
| 20260509093008 | 49 | 144 | 1.7 | 7.0 | 0.01 | 0.07 | 0.01 | 80 | 1008.2 |
| 20260509091506 | 49 | 130 | 1.7 | 6.1 | 0.01 | 0.07 | 0.01 | 80 | 1008.4 |
| 20260509090005 | 49 | 148 | 2.6 | 7.0 | 0.01 | 0.07 | 0.01 | 79 | 1008.5 |
| 20260509084503 | 48 | 123 | 0.9 | 3.5 | 0.00 | 0.06 | 0.00 | 79 | 1008.6 |
| 20260509083003 | 48 | 94 | 0.9 | 1.7 | 0.00 | 0.06 | 0.00 | 78 | 1008.6 |
| 20260509081505 | 48 | 94 | 0.0 | 0.9 | 0.00 | 0.06 | 0.00 | 78 | 1008.8 |
| 20260509080002 | 48 | 94 | 0.0 | 0.0 | 0.00 | 0.06 | 0.00 | 78 | 1008.6 |
| 20260509074600 | 48 | 94 | 0.0 | 1.7 | 0.00 | 0.06 | 0.00 | 77 | 1008.6 |
| 20260509073059 | 48 | 94 | 0.0 | 0.0 | 0.00 | 0.06 | 0.00 | 77 | 1008.8 |
| 20260509071658 | 48 | 94 | 0.9 | 2.6 | 0.00 | 0.06 | 0.00 | 76 | 1008.7 |
| 20260509070057 | 48 | 94 | 0.0 | 2.6 | 0.00 | 0.06 | 0.00 | 76 | 1008.8 |
| 20260509064600 | 48 | 94 | 0.9 | 2.6 | 0.00 | 0.06 | 0.00 | 76 | 1008.8 |
| 20260509063056 | 48 | 69 | 0.0 | 2.6 | 0.00 | 0.06 | 0.00 | 76 | 1008.7 |
| 20260509061605 | 48 | 74 | 0.9 | 4.3 | 0.00 | 0.06 | 0.00 | 75 | 1008.8 |
| 20260509060053 | 48 | 74 | 1.7 | 4.3 | 0.00 | 0.06 | 0.00 | 75 | 1009.2 |
| 20260509054608 | 48 | 83 | 0.9 | 4.3 | 0.00 | 0.06 | 0.00 | 75 | 1009.2 |
| 20260509053055 | 48 | 57 | 2.6 | 5.2 | 0.00 | 0.06 | 0.00 | 74 | 1009.5 |
| 20260509051548 | 48 | 63 | 1.7 | 3.5 | 0.00 | 0.06 | 0.00 | 74 | 1009.5 |
| 20260509050046 | 48 | 53 | 2.6 | 5.2 | 0.00 | 0.06 | 0.00 | 74 | 1009.4 |
| 20260509044543 | 48 | 55 | 0.9 | 4.3 | 0.00 | 0.06 | 0.00 | 74 | 1009.5 |
| 20260509043041 | 48 | 57 | 1.7 | 5.2 | 0.00 | 0.06 | 0.00 | 73 | 1009.9 |
| 20260509041540 | 49 | 54 | 1.7 | 4.3 | 0.00 | 0.06 | 0.00 | 73 | 1010.0 |
| 20260509040042 | 49 | 53 | 2.6 | 3.5 | 0.00 | 0.06 | 0.00 | 73 | 1010.4 |
| 20260509034538 | 49 | 53 | 1.7 | 4.3 | 0.01 | 0.06 | 0.06 | 72 | 1010.4 |
| 20260509033035 | 49 | 47 | 1.7 | 4.3 | 0.01 | 0.06 | 0.06 | 71 | 1010.7 |
| 20260509031534 | 49 | 48 | 0.0 | 3.5 | 0.03 | 0.06 | 0.06 | 70 | 1010.9 |
| 20260509030034 | 49 | 48 | 0.9 | 2.6 | 0.04 | 0.06 | 0.06 | 69 | 1011.2 |
| 20260509024531 | 49 | 48 | 0.9 | 2.6 | 0.04 | 0.05 | 0.05 | 68 | 1011.3 |
| 20260509023034 | 50 | 49 | 2.6 | 4.3 | 0.03 | 0.04 | 0.04 | 67 | 1011.5 |
| 20260509021530 | 50 | 34 | 0.9 | 2.6 | 0.02 | 0.03 | 0.03 | 66 | 1011.8 |
| 20260509020129 | 50 | 34 | 0.0 | 4.3 | 0.01 | 0.02 | 0.02 | 65 | 1011.3 |
| 20260509014537 | 51 | 346 | 1.7 | 3.5 | 0.00 | 0.01 | 0.01 | 65 | 1011.2 |
| 20260509013027 | 51 | 105 | 0.0 | 2.6 | 0.00 | 0.01 | 0.01 | 65 | 1010.8 |
| 20260509011526 | 51 | 107 | 1.7 | 6.1 | 0.00 | 0.01 | 0.01 | 64 | 1010.3 |
| 20260509010030 | 51 | 34 | 4.3 | 7.8 | 0.00 | 0.01 | 0.01 | 64 | 1009.9 |
| 20260509004524 | 51 | 76 | 2.6 | 4.3 | 0.00 | 0.01 | 0.01 | 64 | 1009.9 |
| 20260509003024 | 52 | 76 | 5.2 | 7.0 | 0.00 | 0.01 | 0.01 | 64 | 1009.8 |
| 20260509001528 | 52 | 80 | 0.9 | 2.6 | 0.00 | 0.01 | 0.01 | 63 | 1009.8 |